Torna al catalogo

STARLINK-37182

AttivoComunicazioniVLEO
NORAD 68348·PAYLOAD·🇺🇸 United States

Lanciato Mar 22, 2026 da Cape Canaveral Space Force Station

Loading…

Prossimi Passaggi (prossime 24 ore)

TLE

AggiornatoSource: CelesTrak SupGP

Epoca: Sep 15, 2026, 03:17 UTC

1 68348C 26059AD  26258.13729167  .00025804  00000+0  76274-3 0  2585
2 68348  53.1583 180.8578 0001581 100.1083 326.9905 15.34362431    18

Traccia STARLINK-37182 in tempo reale con AllMySat

Download on the App Store